{"data":{"norad_id":63736,"intl_designator":"2025-088N","name":"KUIPER-00021","alt_names":[],"object_type":"PAYLOAD","status":"ACTIVE","operator":null,"country":"US","launch_date":"2025-04-28","launch_site_code":"AFETR","launch_vehicle":null,"mission":null,"orbit_class":"UNKNOWN","rcs_meters":null,"size_class":null,"mass_kg":null,"dimensions":null,"purposes":[],"wikipedia_slug":null,"has_3d_model":false,"image_url":null,"decayed_at":null,"tle_current":{"epoch":"2026-09-21T09:18:04.127328Z","epoch_age_seconds":128482,"freshness":"FRESH","line1":"1 63736U 25088N   26264.38754777  .00000552  00000+0  10138-3 0  9993","line2":"2 63736  51.9005 317.6856 0000497  87.0625 273.0394 14.79935017 76479","mean_motion":14.79935017,"eccentricity":4.97e-5,"inclination_deg":51.9005,"raan_deg":317.6856,"arg_perigee_deg":87.0625,"mean_anomaly_deg":273.0394,"bstar":0.00010138,"rev_number":7647,"period_min":97.301569559388,"perigee_km":629.18098099982,"apogee_km":629.87754302626,"semimajor_km":7007.666262013,"source":"CELESTRAK","updated_at":"2026-09-22T09:00:29.318369Z"}}}